Regional Weather Roundup
Issued by NWS Northern Indiana

Current Version | Previous Version | Text Only | Print | Product List | Glossary On
Versions: 1 2 3 4 5 6 7 8 9 10 11 12 13 14 15 16 17 18 19 20 21 22 23 24 25 26 27 28 29 30 31 32 33 34 35 36 37 38 39 40 41 42 43 44 45 46 47 48 49 50
000
ASUS43 KIWX 200910
RWRIWX

KIWX WEATHER ROUNDUP
NATIONAL WEATHER SERVICE NORTHERN INDIANA
500 AM EDT FRI APR 20 2018

NOTE: "FAIR" INDICATES FEW OR NO CLOUDS BELOW 12,000 FEET WITH NO
SIGNIFICANT WEATHER AND/OR OBSTRUCTIONS TO VISIBILITY.

* THESE STATIONS ARE NOT UNDER NWS QUALITY CONTROL. THEY ALSO MAY NOT
  REPORT WEATHER SUCH AS PRECIPITATION OR FOG.

INZ001>027-201000-
NORTHERN INDIANA

CITY           SKY/WX    TMP DP  RH WIND       PRES   REMARKS
GARY*          FAIR      29  29 100 CALM      30.47R
VALPARAISO     FAIR      34  25  69 CALM      30.46R
MICHIGAN CITY* FAIR      28  28 100 CALM      30.47R
LAPORTE*       FAIR      29  26  88 CALM      30.46R
KNOX*          FAIR      27  23  86 CALM      30.46R
SOUTH BEND     FAIR      25  22  88 W3        30.45R
GOSHEN         FAIR      31  23  72 NW5       30.43R WCI  26
MONTICELLO*    FAIR      29  22  75 NW5       30.45R WCI  24
LOGANSPORT*    FAIR      32  23  69 N3        30.46R
ROCHESTER*     FAIR      32  28  86 CALM      30.45R
WARSAW*        FAIR      32  23  69 CALM      30.43R
AUBURN*        FAIR      32  23  69 CALM      30.42R
FORT WAYNE     FAIR      29  23  78 NW6       30.43R WCI  23
HUNTINGTON*    FAIR      28  20  71 W3        30.43R
PERU/GRISSOM   FAIR      31  24  75 CALM      30.43R
MARION*        FAIR      30  23  74 CALM      30.44R

$$
INZ028>050-201000-
CENTRAL INDIANA

CITY           SKY/WX    TMP DP  RH WIND       PRES   REMARKS
LAFAYETTE      FAIR      27  23  85 CALM      30.46R
KOKOMO*        FAIR      29  24  82 CALM      30.44R
MUNCIE*        FAIR      32  21  64 NW3       30.42R
INDIANAPOLIS   FAIR      33  19  56 N7        30.43S WCI  27

$$
MIZ043>046-050>051-056>058-064>065-071>073-077>080-201000-
SOUTHWEST LOWER MICHIGAN

CITY           SKY/WX    TMP DP  RH WIND       PRES   REMARKS
BATTLE CREEK   FAIR      30  19  63 W6        30.42R WCI  24
BENTON HARBOR  FAIR      26  22  84 CALM      30.45R
COLDWATER*     FAIR      29  22  75 W5        30.41R WCI  24
HILLSDALE*     FAIR      30  19  64 CALM      30.38R
HOLLAND        FAIR      28  24  85 W3        30.44R
GRAND RAPIDS   FAIR      34  19  54 NW6       30.42R WCI  29
KALAMAZOO      FAIR      33  17  51 N5        30.42R WCI  29
STURGIS*       FAIR      34  19  54 N6        30.41R WCI  29
THREE RIVERS*  FAIR      34  20  56 CALM      30.43R

$$
OHZ001>008-015>018-024>025-201000-
NORTHWEST OHIO

CITY           SKY/WX    TMP DP  RH WIND       PRES   REMARKS
WAUSEON*       FAIR      32  19  59 NW6       30.39S WCI  26
DEFIANCE       FAIR      32  24  72 W3        30.41R
FINDLAY        FAIR      32  25  75 W3        30.38R
TOLEDO EXPRESS FAIR      34  22  61 NW5       30.39R WCI  30
TOLEDO METCALF FAIR      32  23  69 NW7       30.39R WCI  26
LIMA           FAIR      31  28  89 W6        30.38R WCI  25

$$
AND FOR LAKE MICHIGAN COASTAL AND OPEN LAKE BUOY OBSERVATIONS

STATION/POSITION TEMP    WIND        PRES    VSBY  WAVE
                 AIR SEA DIR/SP/G                  HT/PER
                 (F)     (DEG/KT/KT) (MB)    (MI)  (FT/S)
CALUMET HARBOR    38     250/  2/  4 1030.6R
MICHIGAN CITY     38      CALM  /  1   N/A
BURNS HARBOR      40     350/  3/  5 1031.8R
SAINT JOSEPH      35     200/  3/  4 1031.8

$$
&&




USA.gov is the U.S. government's official web portal to all federal, state and local government web resources and services.